NOAA 16 DEB, 41138

Orbit data source: Space-Track

NOAA 16 DEB, 41138 is space debris in SSO originally from a launch on Thu, 21 Sep 2000 UTC launched from the Air Force Western Test Range (AFWTR). Debris objects in space refer to the collection of defunct objects orbiting the Earth. Examples of debris include non-operational satellites, rocket bodies, and fragments generated from explosions, collisions, or faulty payload assembly.

Loading next visibility...
Identifier
41138, 2000-055BV
Orbit
SSO
Country
Flag of USUS
Related business
Manufacturer
Unknown
Mission
Spacecraft
Bus & Motor
Unknown
Mass
Unknown
Launch date (UTC)
2000-09-21 (26 years ago)
Launch vehicle
Unknown
Launch site
Air Force Western Test Range (AFWTR)
Object type
Payload
Rocket body
Debris
Shape & HBR
Unknown shape, 0.1 m
Radar Cross Section
Small (<0.1 m²)

Expand to show TLE details & history
Last TLE update: 9 hours ago

TLE from 9 hours ago
0 NOAA 16 DEB
1 41138U 00055BV  26126.73867425  .00001741  00000-0  73783-3 0  9990
2 41138  98.7004 212.3115 0012901 137.9663 222.2510 14.26664405538367
Epoch: 2026-05-06T17:43Z
TLE epoch observation values (Epoch: 2026-05-06T17:43:41.455Z)
Latitude
0.00006°
Longitude
81.79391°
Altitude
812.69 km
Speed
7.443 km/s
True Right ascension
14h 09m 14s
True Declination
0° 00' 00"
Sunlit
Object was in full shadow at epoch
Visualization orbit readout
Latitude
Unknown
Longitude
Unknown
Altitude
Unknown
Speed
Unknown
Apparent Right ascension
Unknown
Apparent Declination
Unknown
Sunlit
N/A
Visualization observer readout
Local Sidereal Time
11:02:46
Azimuth
Unknown
Elevation
Unknown
Doppler factor
Unknown
Orbital elements
Apogee altitude
809.312 km
Perigee altitude
790.791 km
Semi-major axis
7,178.188 km
Eccentricity
0.00129
Inclination
98.7004°
RAAN
212.3115°
Arg. of periapsis
137.9663°
True anomaly
222.15172°
Mean anomaly
222.251°
Eccentric anomaly
222.20135°
Mean motion
3.56879 °/min
Orbital period
100.87 mins
BSTAR
0.00073783
Loading maneuver chart data...
Computing Atmospheric mass density...
Loading historical data...
Loading historical data...
Loading historical data...
Loading historical data...
Loading historical data...
Loading historical data...
Loading historical data...

Documentation

Showing up to 5 results
|